Theta_e
298 299 299 299 299 298 298 298 298 299 301 303 306 309 313 313 311 311 313 313 313 313 312 311 311 312 312 310 310 309 307 307 306 307 308 309 309 310 310 310 310 310 311 311 311 312 310 313 316 318 320 320 318 317 318 316 315 317 319 318 319 321 318 316 317 317 317 318 317 316 317 315 315 315 317 317 317 316 314 318 322 320 316 316 316 320 327
298 299 299 299 298 297 298 297 298 300 301 302 304 309 312 312 310 310 311 311 312 314 312 311 311 312 312 310 310 310 308 307 307 307 308 309 309 310 310 310 310 310 311 311 311 312 312 311 313 316 317 317 318 316 316 316 316 317 320 318 317 319 318 317 318 318 319 319 317 318 320 318 317 317 317 317 317 319 320 320 321 318 316 316 317 322 328
298 299 298 297 297 297 298 297 298 300 301 302 305 309 312 312 310 308 309 311 311 312 312 311 310 312 313 312 311 310 309 308 308 307 308 309 308 309 310 310 309 309 310 310 310 310 312 311 312 315 315 315 316 316 315 317 315 316 323 323 316 317 318 317 317 319 321 321 321 319 319 319 318 318 319 319 317 319 321 321 321 320 319 320 321 325 328
297 298 297 297 297 297 297 297 298 300 302 303 305 310 312 311 308 306 308 311 311 312 311 310 310 312 312 312 311 310 310 309 308 308 308 309 309 309 310 309 309 310 310 310 310 309 310 310 311 314 316 315 315 315 315 316 315 320 328 326 316 316 318 317 317 318 318 320 321 318 317 318 319 318 319 320 321 321 320 318 319 322 322 324 325 327 329
297 297 297 296 297 297 297 297 298 300 303 304 306 311 313 310 307 307 309 311 311 311 311 310 311 312 312 312 312 312 311 310 309 308 308 309 309 309 309 309 310 310 311 311 311 310 310 311 310 311 314 314 313 314 314 316 321 325 326 322 317 318 319 319 321 319 317 318 319 317 317 318 317 318 319 319 320 324 322 319 321 322 321 323 326 328 329
296 296 297 296 296 297 297 297 298 301 304 305 308 312 311 308 308 308 310 310 311 311 310 310 311 312 312 312 313 313 312 311 311 309 308 309 309 309 308 309 309 309 310 310 310 311 311 311 312 314 316 316 315 315 315 316 320 322 319 317 318 318 318 319 320 319 317 318 319 318 318 318 317 317 318 318 318 321 322 321 323 324 323 325 327 327 327
296 296 296 296 296 297 297 297 298 302 305 306 309 310 308 308 309 309 309 310 310 311 310 310 310 311 312 312 312 312 312 311 311 309 310 311 311 311 310 309 308 308 309 310 313 316 316 316 317 318 319 319 318 318 318 317 317 317 316 317 318 318 319 320 319 319 319 318 318 318 318 318 318 317 317 318 318 318 320 321 321 324 326 326 326 326 325
297 296 297 296 296 296 297 297 298 303 307 308 307 307 307 308 308 309 309 308 309 310 310 309 309 310 311 311 311 311 311 311 310 309 311 312 311 312 312 311 310 311 312 312 315 316 317 317 318 318 317 317 317 318 317 317 316 315 316 320 320 317 318 320 320 319 319 318 318 318 317 317 318 318 317 318 318 318 319 319 319 322 325 324 323 323 323
297 296 296 297 296 296 297 297 298 303 308 310 307 305 307 308 308 309 309 308 307 308 309 309 309 309 309 310 310 310 309 310 310 308 309 310 310 311 312 312 312 313 312 312 312 312 312 314 314 314 314 314 315 315 316 316 316 317 319 321 321 319 318 319 318 317 318 318 318 317 317 318 318 319 319 319 319 319 319 318 317 318 320 321 321 321 322
296 296 297 297 296 296 297 297 298 302 307 311 310 305 306 308 309 310 310 308 306 307 308 308 308 308 308 309 309 309 309 309 309 308 308 308 308 309 311 311 312 311 310 309 309 309 310 311 311 311 311 311 312 313 313 313 314 316 319 319 319 319 318 318 317 316 317 318 317 317 318 318 319 319 319 319 318 319 319 317 317 319 319 319 320 320 320
296 296 297 297 296 296 296 297 298 301 304 307 310 308 304 306 308 310 311 308 305 306 307 306 307 307 307 307 307 308 308 308 309 310 309 309 308 308 308 309 310 309 308 308 309 308 309 309 309 310 310 310 311 311 311 312 311 314 317 318 318 318 317 317 317 316 316 317 318 318 319 319 319 319 318 318 318 319 319 317 316 318 319 319 318 318 317
296 296 297 297 296 295 296 297 298 299 301 304 308 308 303 305 309 309 308 305 305 306 306 305 307 307 307 307 306 307 308 307 308 309 309 309 308 307 307 308 308 308 307 308 308 309 310 310 310 310 310 311 311 311 311 312 312 312 314 317 319 318 316 317 317 315 316 318 318 320 321 320 318 317 317 317 317 317 317 316 314 315 317 318 316 315 315
296 295 296 297 296 295 296 297 297 299 300 302 307 307 303 306 310 310 307 304 304 305 305 305 305 306 306 306 306 307 307 307 307 308 308 307 307 307 306 306 306 306 306 307 308 310 311 311 311 311 311 311 311 311 311 312 312 312 312 314 317 317 316 317 317 316 317 318 318 320 319 318 316 316 316 316 317 317 316 316 315 314 316 317 316 314 313
295 295 296 296 296 295 296 297 297 298 300 303 307 307 304 307 310 311 310 306 303 304 305 304 305 306 305 304 306 307 307 307 308 307 306 305 305 305 305 305 305 305 306 308 308 309 311 311 311 311 310 310 311 311 311 311 311 311 312 312 314 316 316 316 316 316 317 318 319 318 318 317 316 315 315 315 316 317 317 317 316 314 315 316 314 313 312
295 294 295 296 296 295 295 297 297 299 301 304 307 306 304 307 310 311 310 307 303 303 303 304 305 306 305 303 304 306 306 306 307 307 306 305 304 304 304 304 305 305 306 307 308 309 310 310 309 310 311 311 311 312 312 312 311 310 311 312 313 315 315 314 316 316 315 316 318 318 319 318 316 313 311 311 313 314 315 316 315 313 314 313 313 312 311
296 294 294 295 295 294 295 297 297 298 300 303 305 305 304 306 308 310 310 306 303 303 303 303 305 306 305 304 304 305 305 305 306 306 306 305 303 303 304 305 306 306 305 306 308 309 309 309 308 310 310 311 312 313 312 311 311 310 310 310 311 313 314 312 313 314 314 315 316 317 317 316 313 311 309 308 310 312 313 315 315 313 312 312 312 312 311
296 294 294 295 295 294 295 296 297 298 299 302 305 306 304 305 307 309 309 305 302 302 302 302 304 305 304 305 305 304 305 305 306 305 305 305 303 303 304 305 306 306 305 305 307 308 307 307 308 308 309 310 311 312 311 311 311 311 311 311 312 313 313 312 313 313 314 315 314 314 313 312 311 311 309 308 309 312 314 316 314 312 310 311 310 310 310
296 295 294 295 295 294 294 296 297 298 299 302 305 305 303 303 306 308 308 305 302 302 302 302 303 304 304 304 304 304 304 305 306 305 304 304 303 303 304 305 305 305 306 306 306 306 306 307 306 307 308 309 309 309 309 310 310 310 310 310 311 312 311 310 311 311 312 313 313 312 311 310 308 309 310 309 310 313 315 314 312 310 309 309 308 308 309
296 295 294 294 295 294 294 295 297 298 299 301 305 306 303 302 305 307 306 305 302 301 301 301 302 302 302 303 303 303 303 305 305 305 305 304 303 302 305 306 305 305 307 307 305 305 306 306 306 306 307 307 307 307 307 307 308 308 308 308 309 310 310 309 311 311 310 311 312 311 310 308 307 308 308 308 311 313 313 311 310 308 308 307 307 307 307
296 294 294 294 295 294 294 294 296 297 299 299 302 306 304 302 303 305 305 305 303 301 301 301 301 301 301 301 302 302 303 303 304 305 305 304 303 304 306 306 304 305 306 307 306 305 305 306 305 305 306 306 306 306 306 306 306 306 306 307 309 308 308 309 310 310 309 310 312 312 311 309 307 308 309 308 309 310 309 307 307 307 306 306 306 306 306
296 294 294 294 294 294 294 294 294 296 298 298 301 306 305 301 302 304 305 305 303 301 301 301 301 301 301 301 301 301 302 303 303 303 304 304 303 304 305 305 304 305 305 306 307 306 304 305 305 305 305 306 305 305 305 305 305 305 305 306 308 308 308 309 309 309 309 311 310 310 309 307 307 308 308 307 307 307 306 306 306 305 305 305 305 305 305
296 294 294 294 295 294 294 294 294 295 296 298 301 306 306 303 302 304 305 305 303 302 302 302 302 301 301 301 300 300 301 302 302 302 302 303 303 303 303 304 304 304 304 305 307 306 304 304 305 304 305 305 305 305 305 304 305 305 305 305 306 307 308 309 309 308 309 309 308 307 306 306 306 306 306 306 305 306 306 305 305 305 305 304 304 303 304
296 294 293 294 295 295 294 294 295 295 297 299 302 305 306 303 302 304 306 305 304 303 303 304 303 301 301 301 300 300 300 301 301 301 302 303 303 301 301 302 303 304 304 304 305 305 304 303 303 303 304 305 305 305 304 303 304 305 305 304 305 306 306 307 307 307 307 307 306 306 306 305 305 305 305 305 305 305 304 303 303 303 303 303 303 302 302
295 294 293 294 294 295 295 295 295 296 298 301 303 304 305 304 303 304 306 305 303 303 303 302 301 301 301 301 300 300 301 301 301 301 301 302 303 302 302 302 303 304 303 303 303 304 304 303 303 303 303 303 304 304 304 304 304 304 304 304 305 304 304 306 307 307 306 307 306 305 305 305 304 304 304 303 303 303 303 303 302 302 302 302 302 301 301
296 294 293 293 294 295 295 295 295 296 297 301 304 305 305 304 303 304 306 305 304 303 302 301 301 301 301 301 300 300 301 301 301 302 301 302 303 303 302 303 304 304 304 303 302 302 303 302 303 303 303 303 304 303 303 304 304 303 303 304 304 303 302 304 305 305 306 307 306 304 304 304 303 303 303 303 303 302 302 302 302 302 302 302 302 301 301
296 294 293 293 293 294 295 295 296 296 296 299 303 305 305 303 302 303 305 306 306 305 303 302 302 302 301 301 300 300 301 301 302 302 301 301 302 302 303 303 304 304 304 303 302 301 301 301 302 302 302 302 303 303 303 303 303 302 303 303 304 303 302 303 304 305 305 305 304 303 303 303 303 303 302 302 302 302 302 302 302 302 302 301 301 301 301
296 295 294 294 293 294 295 295 296 296 296 297 302 305 305 303 302 302 303 305 306 306 304 303 301 302 302 301 301 301 301 301 302 302 302 302 302 302 302 303 303 303 302 302 301 301 301 300 301 301 300 301 302 302 301 302 302 301 302 302 303 303 302 302 303 304 304 304 303 303 303 303 302 302 301 301 301 302 301 301 301 301 301 300 300 300 300
296 295 294 294 294 294 295 295 296 297 296 296 300 305 305 304 303 302 300 302 305 306 305 303 302 302 303 301 301 301 301 302 302 302 302 302 302 302 303 302 302 302 301 301 300 300 300 300 300 300 300 301 302 302 301 300 301 301 302 302 302 302 302 303 303 303 303 303 303 303 303 302 301 301 301 301 301 301 300 301 300 300 300 300 300 300 299
296 295 295 294 294 294 294 294 295 297 297 297 302 306 306 304 305 302 298 298 303 305 305 303 301 302 302 301 302 302 301 302 302 302 302 302 302 302 302 303 302 301 301 301 300 300 299 299 299 300 300 301 301 302 301 300 301 302 302 302 301 301 302 302 303 303 303 302 302 302 302 301 301 301 300 300 299 299 299 299 299 299 300 300 299 298 298
296 296 296 295 294 294 294 294 295 296 297 299 303 307 306 306 306 301 295 296 302 305 305 303 302 302 302 301 302 302 301 302 302 302 302 303 303 302 302 302 302 301 301 301 300 299 299 299 300 300 300 299 299 300 300 300 301 301 301 301 301 301 301 302 302 302 302 301 301 301 301 301 300 300 300 300 300 299 299 298 299 299 299 298 298 298 298
296 296 295 295 294 294 294 294 295 297 300 303 305 306 305 305 304 299 294 295 301 305 305 303 301 301 302 301 301 302 302 302 302 303 303 303 302 302 302 302 301 301 300 300 300 299 299 299 299 300 300 298 297 299 300 300 300 301 301 301 301 301 301 301 301 301 301 301 301 300 300 300 299 299 300 300 300 299 299 299 299 299 299 298 298 298 298
295 295 295 295 294 294 294 295 297 301 304 304 303 303 302 300 299 297 293 295 301 305 305 303 301 301 301 302 302 301 302 303 303 303 303 303 302 302 302 302 301 301 300 300 300 300 299 298 298 300 300 298 298 299 300 300 300 300 300 301 301 300 300 300 300 300 300 300 300 299 299 299 299 299 299 299 299 299 299 298 298 299 299 298 298 298 298
295 295 294 294 294 294 295 295 298 302 303 301 301 303 302 298 296 295 294 298 304 307 305 303 301 300 301 302 302 302 302 302 303 302 302 302 302 301 301 302 301 301 300 300 299 299 299 299 299 299 300 300 298 299 299 300 300 300 300 300 300 300 300 300 300 300 299 299 299 299 299 299 299 298 298 298 299 299 299 298 298 298 298 297 297 298 298
295 295 294 295 295 295 296 296 298 300 300 302 304 305 301 297 296 294 296 302 307 305 301 301 300 300 301 302 302 302 301 302 302 302 301 302 302 301 301 301 301 301 301 300 300 299 300 300 300 299 299 300 298 297 298 300 300 300 300 300 300 300 300 300 299 299 299 299 299 299 299 299 298 298 298 298 299 299 298 298 298 297 297 297 297 298 297
296 296 295 296 295 295 296 297 299 301 303 305 306 302 298 296 295 294 297 305 308 303 299 300 301 300 302 302 301 302 302 302 302 302 301 302 302 302 301 300 301 301 301 300 300 300 300 300 300 299 299 299 298 298 298 299 299 300 299 299 300 299 299 299 299 299 299 299 299 299 299 298 298 298 298 298 298 298 298 298 298 297 297 297 297 298 297
296 297 297 296 296 298 299 300 302 304 305 305 303 299 296 295 296 296 299 305 307 304 302 302 302 301 302 302 301 301 302 302 302 302 301 302 301 301 300 300 300 300 300 300 300 300 300 300 299 299 299 299 298 299 299 299 299 300 299 299 300 300 299 299 299 299 299 299 299 299 298 298 298 298 298 298 298 298 298 297 297 297 297 297 297 297 297
297 298 298 299 300 302 303 303 303 303 302 300 299 298 297 298 299 301 303 306 307 305 304 303 302 301 302 301 301 301 301 301 301 301 301 301 301 300 300 300 300 299 300 300 300 300 299 299 299 298 299 299 299 299 300 299 299 299 299 299 299 299 299 299 299 299 299 299 299 299 299 298 298 298 298 298 297 297 297 297 297 297 297 297 297 297 297
296 297 299 302 303 304 304 304 303 301 298 298 300 301 302 302 303 303 303 303 303 303 303 303 302 302 302 302 302 301 301 301 301 301 301 300 300 300 300 300 299 299 299 300 300 299 299 299 299 298 299 299 299 300 299 299 299 299 299 299 299 299 299 299 299 299 299 299 298 298 298 298 298 298 297 297 297 297 297 298 297 297 297 297 297 297 296
298 299 302 304 304 303 303 301 299 298 298 300 302 303 302 301 301 301 300 300 300 301 302 302 302 302 302 302 302 302 302 301 301 301 301 300 300 300 299 299 300 299 299 299 299 299 299 299 299 298 299 299 299 299 299 299 299 299 299 299 299 299 299 299 299 299 299 298 298 298 298 298 298 298 297 297 297 297 298 298 297 297 297 297 296 296 296
302 303 304 304 303 303 302 298 297 299 302 303 302 301 299 299 300 300 300 300 301 301 302 302 301 302 302 301 301 302 302 301 301 301 300 300 300 300 299 299 300 299 298 299 299 299 298 299 299 299 299 299 299 299 299 299 299 299 299 299 300 299 299 299 299 299 299 299 298 298 298 298 298 297 297 297 297 297 297 298 297 297 297 296 296 296 296
302 302 303 302 302 302 302 300 300 302 303 301 299 299 299 299 300 300 300 301 301 300 301 302 302 302 302 301 301 302 302 301 301 301 300 300 300 299 299 300 299 298 298 299 299 298 298 299 299 299 299 298 298 299 299 299 299 299 299 299 299 299 299 299 299 299 299 299 298 298 298 298 298 297 297 297 297 297 297 297 297 297 297 296 296 295 295
299 299 300 301 302 302 302 302 302 301 299 298 298 298 298 299 299 299 300 301 301 300 301 301 302 302 301 301 301 302 301 301 301 300 300 300 299 299 299 299 299 298 298 299 299 299 299 299 298 298 298 298 298 298 298 298 298 298 298 299 299 299 299 299 299 299 298 298 298 298 298 298 297 297 297 297 297 297 297 297 297 297 296 296 295 295 295
299 299 301 302 302 301 301 301 300 299 298 297 298 298 298 299 299 300 300 300 301 301 301 302 302 302 302 302 302 302 302 301 301 300 300 300 299 299 299 299 298 298 299 299 299 299 299 299 299 299 298 298 298 298 298 298 298 298 298 299 299 299 299 299 298 298 298 298 298 298 298 297 297 297 297 297 297 297 297 297 296 296 296 296 295 295 295
301 302 301 301 300 300 300 299 299 299 298 297 298 299 299 299 300 300 300 301 301 301 302 302 302 302 302 302 301 301 301 301 300 299 299 299 299 299 299 299 299 299 299 299 299 299 299 299 299 299 299 298 298 298 298 298 298 298 298 298 298 299 298 298 298 298 298 298 298 298 298 298 298 297 296 297 297 297 296 296 296 296 295 295 294 295 295
302 300 300 299 299 298 298 298 298 298 298 298 298 300 300 300 300 301 301 301 301 301 301 301 301 301 301 301 301 300 300 300 300 300 299 299 299 299 299 299 299 299 299 299 299 299 299 299 299 299 298 298 298 298 298 298 298 298 297 298 298 298 298 298 298 298 298 298 298 298 297 297 298 297 296 297 297 296 296 296 296 295 295 295 295 295 295
301 299 299 299 299 299 298 297 298 299 299 299 300 300 301 301 302 302 302 302 301 301 301 301 301 301 301 301 301 300 300 300 299 299 299 299 299 299 299 299 299 299 299 299 299 299 299 299 299 298 298 298 298 298 298 298 298 298 298 298 298 298 298 298 298 298 298 298 298 298 298 298 298 297 297 296 296 296 296 296 296 295 295 295 295 295 295
300 299 299 299 299 299 298 298 299 300 301 301 301 302 302 302 302 302 302 301 301 301 301 301 301 301 301 301 300 300 300 300 299 299 299 299 299 299 299 298 298 298 298 299 299 299 299 298 298 298 298 298 297 298 298 298 298 298 298 298 298 298 299 299 299 298 298 298 297 298 297 297 297 297 297 297 296 296 296 296 295 295 295 295 295 295 295
299 299 299 299 298 299 299 300 300 301 301 302 302 302 302 301 301 301 301 301 301 301 302 301 301 301 301 300 300 300 300 300 300 299 299 299 299 299 299 298 298 298 299 299 299 299 299 298 298 298 298 297 297 298 298 298 298 298 298 298 298 298 298 299 299 298 298 298 298 298 297 297 297 297 297 297 297 296 296 296 295 296 296 296 295 295 295
299 299 299 299 299 300 300 301 301 301 301 301 301 301 301 301 301 301 301 301 301 301 301 301 300 300 300 300 300 300 299 300 299 299 299 298 298 298 299 299 299 299 299 299 299 299 299 298 298 298 298 298 298 298 298 298 298 298 298 298 299 299 298 298 298 298 298 298 298 298 298 298 297 297 297 297 297 296 296 296 296 296 296 296 296 296 295
299 299 300 300 300 300 301 301 301 301 301 301 301 300 301 301 301 301 301 301 301 301 300 300 299 299 299 299 299 299 299 300 299 299 299 299 299 299 299 299 299 299 299 299 299 299 299 298 298 298 298 298 298 298 298 298 298 298 298 298 298 298 299 299 299 298 298 298 298 298 298 298 297 297 297 297 297 297 296 296 296 296 296 296 296 296 295
299 299 299 300 301 301 301 301 300 301 301 301 301 300 300 301 300 301 301 301 300 300 300 300 300 300 300 300 299 299 299 299 299 299 300 299 299 299 299 299 299 299 299 299 299 299 299 298 298 298 298 298 298 298 298 298 299 299 299 299 298 298 298 298 298 298 298 298 298 298 298 298 298 297 297 297 297 297 297 296 296 296 296 296 296 296 296
299 299 299 300 301 301 301 301 300 301 301 301 300 301 300 300 300 301 301 300 300 300 300 300 300 300 300 300 299 299 299 299 299 299 300 299 299 299 299 299 299 299 299 299 299 299 299 298 298 298 298 298 298 298 299 299 299 299 299 299 299 299 298 298 298 298 298 298 298 298 298 298 298 298 297 297 297 297 297 297 296 296 296 296 296 296 296
Wind_Speed
22 24 25 25 25 26 28 30 29 29 28 23 18 14 7 4 2 3 3 2 5 5 6 5 5 6 7 11 14 14 10 10 13 12 9 8 8 7 9 11 12 10 8 8 7 7 8 6 4 6 6 7 6 1 3 5 10 6 4 5 1 2 2 4 5 4 5 9 10 10 13 12 8 8 6 4 6 6 5 2 2 1 4 3 2 2 3
23 24 26 26 26 26 28 30 29 27 24 20 17 10 5 5 4 1 3 2 4 3 4 5 5 5 8 11 13 13 11 10 11 9 7 7 7 7 8 12 12 9 7 8 9 7 5 6 2 4 3 2 4 4 3 1 5 5 3 3 2 1 3 3 4 5 4 6 6 6 9 9 6 7 8 7 8 5 3 3 2 2 5 4 3 2 3
23 25 26 27 26 27 28 29 29 24 21 19 12 6 5 6 3 1 4 6 5 2 2 5 5 5 9 11 11 10 8 9 9 7 8 9 8 7 8 12 11 8 8 10 11 9 6 6 3 2 1 0 4 7 7 6 6 6 8 3 3 3 3 3 5 6 4 5 3 1 3 5 6 10 13 11 11 7 0 2 1 2 5 5 3 2 5
23 25 28 28 27 28 29 29 28 23 19 20 12 7 6 4 2 3 4 5 4 3 3 5 5 5 7 7 7 8 7 5 6 7 7 7 7 6 7 10 9 7 10 10 9 10 9 8 6 2 3 2 4 7 9 10 10 5 3 3 3 2 4 5 6 7 5 2 4 4 1 4 8 12 16 15 12 7 3 2 2 1 1 3 4 2 6
23 25 28 29 28 28 28 28 28 22 16 18 13 7 6 3 3 5 4 2 3 4 5 6 5 5 6 4 4 5 5 4 2 3 4 4 6 7 6 7 7 6 8 8 8 9 10 10 10 7 4 2 1 3 7 7 9 11 9 8 4 3 5 5 4 8 9 4 7 5 3 5 9 12 13 15 17 15 8 2 2 2 3 2 2 5 7
22 25 28 29 28 28 28 29 29 22 15 15 11 5 3 3 3 4 2 2 5 6 7 7 7 7 5 4 8 10 7 3 1 1 3 3 4 6 5 7 9 9 9 9 6 7 9 10 7 3 3 3 2 3 4 5 5 6 8 7 5 4 5 5 6 8 9 5 6 5 5 4 6 10 11 11 14 18 14 8 6 4 1 5 9 11 9
22 24 26 28 28 28 29 30 29 23 16 13 9 3 4 4 2 3 1 2 5 7 7 7 7 8 6 6 9 11 9 6 2 3 2 3 6 6 4 6 9 8 7 7 2 3 5 7 4 6 7 5 3 2 2 4 4 6 7 6 4 3 3 3 5 7 7 5 6 4 4 4 1 5 9 9 9 12 13 12 12 9 9 9 10 12 10
21 23 25 27 27 28 28 30 29 23 18 13 6 5 6 4 3 3 3 3 6 6 6 6 6 7 6 6 7 7 9 9 6 7 6 3 5 7 5 6 8 7 9 8 6 8 6 6 6 6 5 4 2 1 3 3 3 5 3 1 1 2 2 2 2 4 5 4 6 5 5 6 7 6 5 5 6 8 8 10 11 9 9 9 8 9 8
20 22 24 25 26 27 27 29 28 24 19 14 8 6 8 8 5 4 5 3 5 5 6 6 5 6 6 6 7 7 9 11 8 7 9 8 7 8 8 8 7 6 10 11 10 8 7 7 7 6 5 4 2 2 3 4 3 2 1 2 3 2 1 2 3 5 3 3 5 3 1 2 5 7 7 3 1 4 4 6 8 8 5 6 7 6 6
20 21 22 24 25 26 26 27 27 24 21 15 8 7 10 10 7 7 6 2 2 3 5 6 5 5 6 6 8 8 9 11 9 6 7 11 12 10 10 9 6 4 9 10 10 9 8 7 6 6 5 6 5 3 4 5 4 1 2 1 2 1 1 2 4 4 2 3 5 5 4 1 3 4 6 6 4 6 7 6 7 7 5 3 5 5 6
20 20 21 23 24 24 24 24 24 24 22 17 10 7 11 10 8 7 6 1 3 4 5 6 4 2 3 6 8 8 9 10 10 7 5 9 12 12 11 10 7 5 8 9 9 8 8 6 6 6 6 7 6 5 5 5 5 2 2 2 1 2 3 2 2 3 3 4 7 5 2 2 2 4 2 8 8 7 8 7 7 7 5 5 6 6 7
20 20 20 22 23 23 23 23 22 21 21 19 12 8 12 12 9 7 5 2 5 5 5 7 5 2 3 3 4 5 7 8 8 7 6 7 10 11 10 10 8 6 8 10 9 8 7 6 6 7 7 7 7 5 3 2 3 3 2 5 3 2 3 1 1 2 1 3 6 4 2 1 3 6 4 6 8 8 9 8 7 6 6 8 9 9 10
20 19 19 20 22 22 21 21 21 19 19 19 15 10 13 14 9 6 5 4 5 6 6 7 8 6 5 4 3 2 2 4 6 6 6 7 9 10 9 9 9 8 10 11 10 9 7 5 5 5 6 6 6 5 5 3 1 3 2 4 5 2 3 1 2 2 1 2 3 3 1 3 5 7 8 6 7 9 8 7 7 8 8 9 10 10 11
20 19 18 19 20 21 20 20 20 19 18 19 16 10 12 15 10 5 6 3 4 7 7 6 7 9 8 8 7 1 4 2 1 2 3 4 7 8 8 9 11 10 9 9 8 7 5 3 3 4 4 4 5 5 5 4 2 2 2 1 3 2 3 2 1 2 1 2 2 1 3 4 6 7 8 8 4 2 3 5 6 7 9 10 10 12 12
19 19 17 18 19 20 20 19 19 19 18 18 15 9 11 16 13 8 7 5 4 5 7 6 7 9 7 8 9 6 1 0 1 2 2 1 2 5 5 7 11 10 8 8 6 3 3 3 3 3 3 2 3 3 3 3 1 1 1 1 1 2 2 1 2 2 2 2 3 2 3 2 3 7 9 8 6 6 1 6 7 6 8 10 10 12 13
19 18 17 17 18 19 19 18 18 17 17 19 17 11 11 17 17 12 9 5 4 5 7 8 7 8 7 7 9 8 6 4 4 2 1 1 4 6 6 5 7 8 7 7 5 3 3 3 3 3 3 1 2 2 3 4 2 0 2 4 4 4 4 2 2 2 2 2 3 2 1 1 3 7 10 10 11 12 6 4 6 5 6 8 7 9 10
18 18 17 16 17 18 17 17 17 16 16 18 18 13 11 16 19 16 9 3 6 5 7 10 8 6 5 6 7 7 6 5 6 4 3 4 6 7 8 7 5 5 6 6 5 3 3 3 3 5 2 2 1 3 3 3 3 2 2 2 1 2 3 3 3 4 3 3 2 1 2 3 5 6 6 7 10 12 5 5 3 2 6 9 9 9 8
17 16 16 16 16 17 17 15 15 15 15 17 16 12 10 15 20 18 9 2 5 5 7 11 10 6 6 7 6 6 6 6 7 5 5 6 7 7 9 7 6 6 6 6 4 3 3 3 3 4 1 4 4 4 1 1 2 3 3 2 2 3 2 2 4 4 3 3 1 2 3 3 7 8 6 4 5 6 2 3 2 2 9 13 12 12 12
16 15 15 15 14 15 16 15 14 13 13 16 17 12 10 14 20 19 11 4 4 5 8 11 11 9 9 9 7 6 7 7 7 6 5 5 8 11 8 2 5 7 6 6 4 3 4 3 1 3 2 3 2 2 2 2 2 3 4 4 2 3 4 3 3 4 3 2 2 3 3 1 5 8 8 7 2 1 2 2 3 7 11 12 11 12 13
16 15 14 14 13 14 15 14 13 12 10 13 17 13 9 12 16 17 13 6 2 5 7 10 11 11 11 10 9 8 8 7 7 7 6 6 9 11 5 2 5 7 6 7 5 3 4 5 2 3 4 2 3 3 1 0 3 5 7 5 4 5 4 2 4 4 4 0 3 3 3 3 6 5 6 8 4 4 5 5 8 11 12 11 11 11 11
16 14 14 14 12 12 14 14 14 12 9 11 15 12 8 11 13 14 15 12 5 5 6 9 11 12 12 11 11 11 10 9 8 8 7 6 7 7 4 5 6 5 4 6 6 2 3 5 4 3 2 1 2 3 2 2 3 7 7 5 4 6 5 2 5 4 4 2 4 3 3 5 7 6 5 7 7 7 6 7 8 9 8 9 9 8 9
14 13 13 13 11 10 11 13 14 13 10 10 13 11 8 9 9 12 15 11 6 5 2 3 7 10 11 10 11 12 12 11 11 10 8 6 5 6 6 6 7 5 4 5 5 4 4 4 4 4 3 3 4 4 3 2 0 4 6 3 4 6 5 5 6 6 5 5 5 4 4 5 7 8 8 9 10 9 9 9 8 6 7 7 6 7 7
13 12 11 11 10 9 9 10 12 13 12 11 12 12 10 8 9 14 15 6 3 3 1 2 4 7 9 10 10 10 10 11 12 13 12 8 4 5 6 6 6 5 4 5 5 5 5 5 5 4 4 5 5 5 2 0 1 4 4 3 4 4 4 5 7 7 8 8 7 7 7 8 8 7 8 9 9 8 10 10 8 7 7 6 6 6 6
12 11 10 10 10 9 7 8 10 11 11 10 10 10 9 8 10 14 13 4 1 1 2 3 5 5 5 7 9 9 9 10 11 12 13 12 7 5 5 6 6 5 5 6 6 5 4 3 4 3 3 4 4 4 3 3 4 5 3 2 6 4 3 3 6 5 4 5 7 8 8 8 8 8 9 9 8 8 8 7 7 7 7 7 6 5 4
12 11 10 9 9 9 7 7 8 9 9 8 10 10 9 8 10 13 10 4 3 2 1 4 4 3 3 6 8 8 9 9 8 9 11 12 9 6 6 5 2 2 5 5 5 5 4 3 3 2 3 4 4 4 4 3 4 4 4 3 5 4 6 3 5 5 4 6 8 9 9 8 8 7 7 7 8 8 7 7 6 6 6 7 5 4 4
13 11 9 9 9 8 8 7 7 8 7 6 9 11 10 8 10 12 9 7 6 4 1 4 4 1 2 5 5 5 7 8 9 8 9 10 9 8 9 7 2 2 4 4 3 4 4 3 4 4 4 5 6 4 3 2 1 1 3 4 2 3 4 3 5 7 7 7 9 9 9 9 9 9 8 7 7 7 6 6 6 4 5 5 4 3 3
13 11 10 9 8 7 7 7 6 7 7 4 6 8 8 7 8 9 9 8 5 3 0 4 4 3 4 5 4 5 7 9 9 8 7 8 7 5 6 7 5 4 4 4 2 3 3 3 4 5 4 4 5 4 3 3 4 1 4 5 2 2 3 4 2 3 5 6 7 6 6 6 8 8 7 6 6 5 4 5 5 4 4 3 2 2 1
14 12 10 9 7 6 6 6 5 6 6 4 4 6 6 5 7 8 8 8 5 4 3 3 3 3 2 4 5 5 7 9 9 9 7 7 8 7 4 6 5 5 5 4 3 3 5 5 5 4 4 3 3 2 1 1 1 1 5 8 6 6 6 6 3 3 6 6 6 5 5 6 6 6 6 5 3 3 4 3 3 2 2 3 3 4 4
14 12 10 8 7 6 5 5 4 4 5 5 6 8 6 1 6 9 8 7 6 6 5 1 3 3 2 4 6 6 7 7 8 8 7 7 8 10 8 6 5 4 4 4 3 2 4 4 4 3 4 4 4 3 2 1 2 4 7 8 6 5 7 6 5 6 7 6 5 5 6 7 6 5 6 5 4 4 4 4 4 3 4 6 5 5 5
15 12 9 7 6 5 4 4 3 3 4 6 8 9 5 4 6 10 9 7 7 6 5 3 1 3 4 4 4 5 5 5 5 6 7 5 4 6 7 6 5 5 5 4 3 3 2 3 3 3 4 4 4 4 4 2 3 6 7 6 4 4 6 6 5 6 7 6 6 5 6 6 5 4 5 6 5 4 5 5 4 4 6 8 6 5 5
15 12 8 6 5 4 4 3 1 1 6 8 8 6 2 2 5 9 8 6 6 6 5 3 1 2 3 3 2 4 5 5 2 1 4 6 5 6 6 7 5 6 6 5 4 2 2 3 3 3 4 4 4 4 4 3 2 6 5 4 4 5 6 5 5 6 7 5 4 5 6 5 3 3 5 5 4 4 4 5 3 2 1 3 3 3 2
13 10 7 4 3 4 3 1 3 2 5 7 5 3 3 3 7 9 7 6 5 5 5 3 0 2 2 3 2 2 5 6 2 3 2 6 6 4 3 4 4 5 4 4 3 2 3 4 3 1 3 3 4 4 4 3 3 6 5 4 4 5 4 4 4 5 5 3 2 3 4 4 5 5 5 3 3 4 4 6 6 2 5 4 3 3 3
10 8 5 3 2 2 0 3 4 3 1 3 1 3 5 7 8 6 3 4 5 5 5 3 0 2 2 1 2 1 4 4 2 1 2 5 5 4 2 3 2 2 2 3 3 2 2 1 1 1 2 1 3 4 3 3 5 5 3 3 5 4 3 4 4 3 3 3 2 1 3 5 4 3 2 2 4 5 4 5 6 4 3 3 5 4 4
8 5 3 2 1 0 3 4 4 3 5 5 2 3 6 7 6 2 1 3 5 6 4 3 2 2 2 2 3 2 4 4 1 2 3 4 3 4 3 1 1 0 2 2 3 1 0 1 3 2 1 1 1 3 3 2 4 3 1 3 4 2 3 4 3 2 3 3 2 2 4 4 1 2 2 2 3 5 6 6 6 6 5 4 3 2 3
4 3 2 3 4 5 6 4 3 7 8 4 3 6 6 5 2 1 0 2 3 4 2 2 3 1 1 2 3 3 5 4 2 4 3 2 2 3 3 3 2 1 2 2 3 1 2 3 3 2 1 1 0 1 1 3 4 2 1 1 2 1 2 2 3 2 4 3 1 1 1 0 2 3 3 4 4 5 5 5 7 6 4 4 3 2 2
3 2 3 5 6 5 5 4 4 5 4 2 5 5 4 2 0 0 1 3 5 3 1 2 2 1 2 1 3 3 3 3 3 3 2 1 2 2 4 4 2 2 2 2 3 2 4 2 3 2 1 1 1 2 4 4 4 2 2 2 1 1 1 1 2 2 4 3 0 2 2 3 3 3 3 4 4 4 3 3 4 3 3 3 2 2 4
1 3 3 4 3 4 5 3 2 2 4 4 4 3 2 2 1 2 3 5 6 4 3 4 2 3 3 2 3 2 2 3 3 2 2 3 3 2 3 3 2 2 2 3 1 3 4 2 2 3 1 0 1 4 5 4 4 4 4 4 2 2 2 1 1 2 3 3 2 3 4 5 4 2 3 4 5 4 3 2 2 2 2 2 2 3 3
3 4 5 5 5 4 1 3 4 4 3 2 2 2 3 3 3 3 3 3 3 3 4 4 1 2 1 1 3 3 4 4 3 3 2 2 2 1 2 2 2 2 3 1 2 2 2 1 1 3 2 2 4 5 4 3 4 4 4 4 3 3 3 1 1 2 3 4 4 3 3 4 4 3 5 7 8 5 3 2 1 1 2 3 4 5 3
5 4 7 8 5 0 3 3 3 2 0 1 2 2 2 3 2 2 2 1 2 2 2 2 2 2 3 2 4 4 4 3 4 3 2 2 2 2 2 2 2 2 4 2 2 1 3 2 2 2 1 5 5 3 4 4 4 3 3 4 5 5 3 1 1 1 2 3 1 2 3 3 5 5 6 7 7 4 3 3 1 3 4 4 5 5 4
4 5 6 4 1 4 4 4 3 2 2 3 3 2 1 2 2 1 1 2 3 2 1 1 2 3 4 3 2 3 2 3 4 4 3 2 2 2 3 3 2 3 4 2 1 1 3 3 2 2 1 4 2 1 2 4 4 4 4 4 5 5 3 1 1 1 1 2 2 3 3 4 6 6 6 7 6 4 1 2 2 4 5 5 3 3 3
4 5 4 3 5 4 3 4 3 3 3 2 1 1 1 2 1 1 2 3 3 2 1 1 0 2 1 3 3 2 2 2 3 3 2 1 2 2 4 3 2 2 3 2 2 2 3 3 3 1 2 3 2 3 3 4 4 3 3 4 5 4 3 2 1 1 0 1 2 2 4 5 6 7 8 6 5 3 1 2 3 4 5 5 4 4 5
5 5 4 4 3 1 2 3 4 3 1 1 1 1 2 1 1 1 2 1 0 2 1 1 1 2 2 3 4 2 2 2 2 3 2 1 2 2 4 3 2 2 3 3 2 3 3 3 3 1 3 2 2 4 4 4 4 4 3 2 2 4 4 2 2 1 1 3 3 4 4 4 5 7 6 5 3 1 1 3 4 6 6 6 4 3 4
3 4 3 3 3 3 3 3 2 1 0 1 1 1 1 2 3 3 2 1 1 1 2 1 1 1 1 1 2 1 2 2 2 3 2 1 1 1 3 2 2 2 2 3 3 3 3 4 3 1 4 2 2 3 4 4 4 5 4 2 0 3 5 3 1 1 2 3 3 4 4 5 6 6 4 4 1 2 3 5 6 6 5 4 3 3 5
5 4 3 2 2 2 2 1 1 1 1 2 2 2 2 3 4 3 2 2 2 1 1 1 1 2 0 1 1 1 1 2 1 2 1 1 1 2 2 2 2 2 3 3 4 3 3 3 2 2 3 2 1 3 3 3 3 4 5 5 2 2 4 4 3 3 3 3 3 4 4 4 4 4 3 1 3 3 4 6 7 5 2 3 4 5 6
5 3 2 0 0 1 1 1 1 2 2 3 3 3 3 3 3 2 2 2 2 2 0 1 2 3 2 0 0 1 1 0 1 1 1 2 2 2 2 2 3 3 4 3 4 4 3 2 2 1 1 2 3 3 2 3 4 4 5 6 5 3 3 4 5 4 4 4 3 3 4 3 2 3 4 3 4 5 6 7 7 5 4 5 6 5 4
4 2 1 1 1 2 2 2 2 3 3 3 3 1 1 1 3 3 2 0 1 2 1 1 2 3 3 2 1 1 1 1 2 1 1 2 2 2 2 3 3 4 4 3 4 4 2 3 3 1 2 4 3 2 2 3 3 4 3 4 5 5 4 5 6 6 5 5 4 4 3 2 1 2 4 4 5 6 7 7 5 4 4 4 5 4 4
2 1 2 2 1 2 3 3 3 2 2 2 1 2 4 3 3 4 1 2 1 2 1 2 2 3 3 2 2 2 1 0 1 2 1 2 2 1 1 3 3 3 3 4 4 4 2 2 2 2 3 4 2 2 2 2 3 4 3 2 4 6 6 7 7 7 7 7 6 5 4 3 3 3 4 5 6 7 7 6 5 5 5 5 5 4 4
1 1 2 2 1 3 5 4 4 2 1 1 2 3 3 0 1 2 1 1 2 2 1 2 2 3 2 0 1 3 1 1 2 2 1 1 2 1 1 3 3 3 3 4 4 3 2 2 1 2 2 2 4 4 3 3 4 4 4 5 4 3 4 7 8 7 6 6 7 7 7 6 5 4 5 6 8 8 8 7 7 6 6 6 6 5 4
1 2 2 2 3 3 3 2 2 2 1 1 1 1 2 1 1 3 2 0 1 2 2 2 3 4 2 1 1 3 3 1 2 2 1 2 2 2 2 3 4 3 3 4 4 3 3 2 2 0 1 3 4 4 3 4 4 4 5 7 7 5 6 8 7 5 3 5 8 9 8 6 5 4 5 6 7 8 9 8 8 7 7 6 6 6 5
3 3 3 3 3 3 2 2 2 2 2 2 1 1 1 1 3 4 2 2 1 1 2 2 2 2 2 2 2 3 2 2 2 2 3 3 3 3 3 4 5 4 3 3 4 4 4 3 1 3 4 4 4 5 4 5 6 6 6 7 7 7 8 10 10 5 4 4 6 10 11 8 6 6 5 6 7 9 9 9 9 9 8 7 6 6 5
3 3 3 4 4 3 1 1 2 2 1 3 2 0 0 0 1 3 2 2 2 1 3 3 2 1 2 3 2 2 2 2 2 3 4 4 3 3 4 5 4 4 4 4 4 4 3 3 3 3 4 4 5 5 5 6 7 7 7 8 7 5 5 8 11 10 6 6 7 6 9 12 10 6 3 3 6 8 9 9 10 10 9 8 7 7 7
3 3 3 3 3 3 2 1 2 2 2 2 1 1 1 1 0 2 2 1 3 3 3 2 2 2 3 2 1 2 2 2 3 4 4 3 3 3 4 4 3 4 5 6 5 3 3 3 3 3 4 6 6 6 7 7 6 6 7 8 8 6 4 5 8 10 10 8 6 8 9 13 13 7 3 4 7 7 8 9 10 10 10 10 9 8 7
Wind_Direction
348 347 345 343 346 351 354 355 358 359 356 349 340 327 299 274 342 88 132 212 243 254 268 264 255 257 268 275 271 265 264 262 260 263 266 262 259 250 251 264 265 262 286 297 274 265 274 263 205 158 180 210 213 197 31 338 322 320 209 215 323 15 266 230 230 255 266 276 298 309 301 298 283 263 255 233 242 257 269 267 133 218 266 250 233 168 93
349 348 346 346 350 354 355 356 358 1 3 354 332 317 306 315 333 131 129 22 313 282 289 294 296 302 296 286 271 267 279 281 263 262 284 281 265 261 262 260 256 254 271 279 266 259 279 291 272 148 179 193 162 185 183 232 301 313 282 247 148 171 249 242 250 257 243 258 279 294 306 324 329 300 286 251 232 241 311 3 86 229 266 264 246 164 95
352 350 350 351 354 356 356 356 358 358 2 357 334 299 301 307 293 295 53 34 352 320 335 312 312 316 300 286 273 265 271 288 292 289 293 288 268 254 267 270 262 256 262 258 252 253 264 276 272 105 91 149 161 179 171 171 223 290 328 334 155 199 218 198 240 247 232 244 237 206 327 328 331 338 336 303 260 238 323 31 24 295 312 315 309 152 127
354 353 354 356 356 358 358 357 356 356 358 355 335 284 288 302 315 348 20 40 347 335 7 331 317 311 290 274 271 265 251 268 298 291 280 294 294 274 277 290 288 279 274 272 262 250 250 261 256 179 153 190 183 181 183 191 196 202 293 259 187 236 240 213 234 252 254 217 149 133 48 349 339 352 1 349 325 305 289 234 223 202 76 358 342 67 116
357 357 358 359 359 0 0 358 356 353 351 351 335 277 269 300 18 5 351 13 348 343 356 348 344 326 295 284 309 295 260 239 283 299 272 279 296 285 276 283 286 284 273 272 277 265 253 255 251 233 205 169 151 203 200 190 162 156 187 217 213 238 238 221 236 260 262 211 143 129 85 36 357 352 1 4 6 6 359 322 277 255 192 160 81 90 103
357 359 360 1 2 3 2 0 359 352 343 339 323 278 288 338 40 38 334 323 352 354 350 351 4 4 344 356 2 352 344 324 308 336 295 288 306 294 284 278 267 263 258 250 263 282 271 266 271 304 15 32 347 261 199 150 137 175 200 206 210 231 231 213 213 241 255 221 160 138 113 78 0 349 350 356 14 17 11 8 16 22 106 123 118 116 110
357 359 1 3 4 5 4 3 2 356 344 332 311 309 9 4 32 36 336 10 17 7 355 352 11 20 22 32 16 4 4 353 348 46 23 351 350 328 294 285 276 279 290 276 273 23 314 298 340 21 20 13 359 317 207 162 173 219 219 194 192 230 262 240 215 228 244 219 188 186 174 172 237 323 332 343 10 17 10 10 24 56 87 89 100 104 99
355 358 2 5 5 7 7 6 6 4 358 353 356 33 17 355 19 6 332 35 40 25 8 4 21 27 20 25 21 13 8 355 5 47 48 28 360 347 346 336 321 354 20 14 37 49 13 351 11 7 355 0 10 284 264 257 207 209 224 258 259 265 292 298 241 240 242 202 191 212 224 214 207 226 280 330 12 12 7 13 24 52 85 86 82 85 85
354 358 3 6 6 8 10 10 10 13 14 9 15 38 6 341 354 339 310 7 44 35 29 23 25 29 21 11 8 17 14 355 352 29 28 24 22 4 6 4 339 10 39 27 21 18 354 348 356 347 342 339 302 233 266 291 262 198 131 354 321 302 277 250 241 248 248 187 186 172 150 247 243 228 229 236 36 41 41 40 35 32 57 105 108 91 88
354 360 4 6 8 9 12 13 12 17 24 15 2 21 7 345 341 327 304 326 53 38 43 47 44 31 16 5 2 9 15 4 0 15 12 16 21 14 13 11 349 17 35 13 353 342 329 324 323 319 311 297 288 281 281 291 306 1 110 151 288 298 216 235 245 240 216 165 152 122 110 135 299 264 220 197 161 117 96 76 57 31 7 63 109 96 89
356 1 4 6 9 11 13 16 14 15 20 10 342 352 7 350 331 318 297 300 50 34 40 46 55 62 19 13 15 12 10 12 13 12 6 7 6 7 16 15 7 24 18 351 329 316 306 296 289 285 280 276 275 274 274 277 283 276 137 137 273 271 243 266 284 252 225 151 122 116 168 194 348 334 213 171 162 131 106 91 78 65 49 70 87 85 83
358 2 4 6 9 11 13 16 16 14 13 3 340 344 5 348 321 314 315 15 40 26 33 40 42 95 93 42 30 25 13 12 10 0 358 1 353 354 7 10 9 10 346 330 324 311 288 261 249 248 247 249 251 250 253 267 283 279 138 119 116 254 258 283 325 275 248 137 142 154 204 186 39 14 39 135 146 127 111 108 100 95 97 97 92 86 83
360 2 5 6 9 12 12 14 15 12 8 3 349 349 7 354 332 332 348 19 39 8 11 41 33 30 43 18 359 111 84 11 3 355 355 360 352 350 355 355 353 347 331 324 321 310 292 262 243 246 240 228 225 232 235 215 263 317 331 104 113 201 233 110 36 316 40 141 196 198 120 74 62 38 28 55 113 122 115 111 116 123 119 108 105 103 96
0 2 5 7 9 12 12 13 14 10 8 4 351 348 13 7 355 350 337 349 62 24 6 34 23 7 17 10 355 87 165 189 288 326 345 358 353 350 350 342 333 327 322 319 310 306 309 299 285 280 257 231 223 238 248 235 215 290 303 75 107 184 204 142 121 263 224 187 214 182 133 97 70 44 22 29 60 114 132 118 116 128 129 124 123 121 116
359 1 5 7 9 12 13 12 13 11 10 10 1 6 24 11 357 345 325 326 74 52 23 27 355 332 353 18 8 4 21 276 259 227 206 165 16 15 16 346 324 314 312 309 298 295 306 304 306 298 274 265 271 283 305 297 237 176 237 242 126 124 132 135 189 206 211 228 232 203 177 149 48 21 6 8 6 343 358 124 114 108 122 128 130 128 131
359 3 5 7 9 12 12 13 14 11 9 9 7 14 25 10 357 345 332 348 55 53 24 17 345 323 351 24 15 6 4 354 347 332 252 59 36 27 23 356 310 297 304 303 297 298 288 285 295 281 269 341 350 321 315 304 289 200 220 218 188 152 136 139 201 202 175 228 256 247 153 130 22 2 347 345 349 341 331 134 119 95 108 119 126 129 135
358 3 6 7 10 12 13 14 13 11 10 5 359 359 12 11 359 341 326 14 66 52 22 11 357 348 17 23 9 7 5 347 347 339 317 11 37 22 2 355 324 304 316 313 300 284 268 261 274 275 264 86 68 253 253 280 298 313 285 234 219 225 193 186 224 231 202 205 257 49 107 66 18 353 328 334 344 334 313 157 139 29 69 76 75 81 76
356 1 6 8 10 12 15 15 12 12 11 5 359 356 6 10 360 346 337 44 68 51 34 25 20 23 25 15 5 11 9 350 349 344 330 3 26 3 343 353 358 348 339 325 315 304 283 262 268 301 318 140 193 248 231 79 294 289 309 339 338 314 288 240 241 249 241 228 203 95 102 49 354 331 323 338 336 326 346 134 150 51 74 72 66 69 65
355 359 6 9 10 14 16 15 14 11 6 3 2 3 12 13 3 358 3 46 70 51 36 31 35 36 27 21 16 19 18 6 360 358 354 7 358 329 311 338 15 359 349 339 344 357 322 285 227 320 320 152 173 317 30 61 350 328 323 316 334 354 347 330 313 305 286 241 138 109 105 42 307 310 339 1 354 123 66 53 67 73 76 72 65 67 68
354 357 4 7 11 16 18 18 17 11 4 0 356 354 12 18 9 5 4 3 62 78 47 36 42 44 37 34 28 21 23 19 9 3 3 4 347 329 317 60 15 356 3 359 358 18 345 338 20 352 323 8 27 352 310 119 65 36 354 338 34 25 341 7 34 347 305 144 99 105 91 19 330 321 360 8 23 101 88 58 63 64 63 67 64 59 63
353 355 359 3 9 16 19 24 23 13 6 359 349 346 8 20 12 3 355 353 25 80 50 40 48 49 46 41 31 26 29 26 17 7 353 349 351 351 17 41 10 358 15 355 338 344 357 354 359 337 315 16 1 335 342 10 79 62 18 354 37 21 345 46 60 3 325 34 67 74 73 38 27 48 71 47 48 79 87 73 72 69 66 72 70 61 64
351 352 354 358 6 12 16 27 30 23 16 4 358 1 14 19 7 345 340 356 54 91 72 66 70 63 57 49 41 40 38 27 20 15 356 342 5 26 26 21 14 16 18 350 338 352 8 4 348 331 355 25 353 342 6 348 23 63 43 21 30 33 40 76 69 44 45 78 100 105 89 63 58 74 84 71 67 76 76 70 72 79 82 83 83 80 78
345 346 348 353 358 3 10 20 28 31 30 21 16 10 2 1 356 335 326 334 106 127 144 121 86 65 55 47 44 45 40 30 28 24 9 354 11 53 42 16 0 1 14 10 357 354 360 360 345 341 12 20 349 334 340 191 42 38 47 65 62 59 79 93 95 92 83 86 102 106 93 81 78 83 82 74 72 75 73 70 70 72 76 80 80 78 73
342 340 342 348 351 353 357 2 13 25 31 33 29 8 344 346 354 340 329 323 149 137 89 66 44 34 30 34 38 35 30 32 34 29 22 17 20 45 46 18 354 354 15 11 341 319 321 327 319 333 22 16 345 341 358 43 43 13 342 89 79 45 4 71 117 132 113 101 111 111 106 104 100 97 92 85 81 79 76 78 81 80 79 81 86 95 97
347 342 339 340 343 346 345 342 350 5 17 30 29 10 352 356 357 344 335 335 319 292 112 79 56 11 354 28 38 31 23 24 24 25 32 34 33 24 12 0 326 317 341 341 329 318 315 316 316 341 47 26 351 357 22 34 39 17 354 46 64 5 325 3 92 93 89 116 122 116 113 112 105 100 101 98 93 91 93 99 107 116 115 106 107 123 124
348 345 340 336 334 337 339 336 339 349 360 23 25 10 359 3 4 355 346 339 318 287 229 91 84 75 38 40 34 27 25 19 15 21 31 35 36 27 7 352 308 265 313 323 335 332 324 346 7 11 37 22 346 346 25 12 331 78 66 52 17 294 308 14 78 93 106 126 132 129 124 116 102 95 94 91 92 97 102 104 107 113 108 100 97 105 106
347 345 342 338 330 327 333 333 334 344 351 13 26 8 355 0 14 13 2 352 335 291 305 81 94 99 71 51 24 20 30 22 14 18 27 29 29 29 25 15 4 358 355 344 324 321 333 27 37 22 22 10 339 336 26 4 327 358 69 50 358 310 12 34 68 121 128 130 130 130 127 114 104 99 97 97 102 102 92 82 78 62 48 47 16 359 20
347 344 341 338 330 326 326 318 322 341 348 358 0 337 328 358 24 22 10 2 349 315 322 41 102 128 74 33 16 25 40 34 20 12 18 24 6 347 15 46 27 0 2 358 345 10 29 33 28 19 19 7 342 342 47 27 335 41 51 41 27 17 24 25 26 72 100 115 114 105 106 111 110 106 102 96 94 99 99 89 82 55 20 15 347 336 340
345 343 342 338 328 324 320 305 305 330 342 341 318 292 263 129 36 13 4 3 349 320 305 323 124 138 100 37 18 21 39 46 33 20 21 27 9 354 1 33 34 0 338 331 336 22 50 50 38 31 24 356 332 323 297 225 129 80 59 53 48 33 35 42 56 78 96 107 97 89 103 111 112 110 101 82 49 34 35 33 35 25 11 11 356 332 330
343 340 340 335 322 318 317 302 287 314 329 322 306 285 237 142 44 6 357 358 352 331 305 304 53 92 88 56 7 350 14 40 42 30 17 8 19 21 5 359 19 11 330 321 355 18 37 59 61 62 52 16 335 320 314 321 81 75 59 52 58 60 56 56 63 81 92 91 82 90 105 107 113 118 96 77 61 41 12 4 31 44 15 358 337 303 309
341 338 336 333 319 308 310 301 198 6 337 318 300 291 249 124 11 353 348 348 345 321 291 287 88 120 118 96 5 322 352 22 33 5 349 351 23 48 13 346 16 33 357 341 9 25 25 38 40 59 63 38 345 319 318 325 84 93 78 57 58 65 66 64 71 85 93 95 100 116 114 98 91 96 84 71 65 51 3 338 3 99 197 294 297 280 319
342 339 338 338 314 297 311 67 135 67 350 328 319 359 23 351 340 340 337 341 335 299 276 280 125 137 118 108 124 308 338 356 320 246 306 9 17 31 7 352 30 56 24 340 344 15 35 28 3 19 57 28 324 307 313 335 56 83 92 95 86 77 73 77 80 82 87 87 96 125 117 81 49 58 74 59 14 19 357 330 330 281 214 234 315 333 358
347 346 346 351 325 305 37 133 158 159 326 306 322 46 17 347 340 337 331 337 313 278 273 299 110 117 73 91 150 232 313 323 317 293 42 35 1 326 356 27 43 80 53 341 338 13 53 19 302 9 78 45 308 312 332 24 58 66 77 97 99 99 97 94 89 87 92 81 42 54 101 92 62 40 36 359 345 346 324 308 321 327 305 313 331 341 356
356 5 14 36 31 103 140 149 171 210 246 242 175 60 2 342 338 322 337 351 303 267 266 293 263 141 121 185 150 61 328 307 341 22 42 53 12 330 349 18 268 228 46 4 324 313 86 25 350 357 73 98 355 336 339 36 74 80 79 89 102 127 136 125 134 139 108 89 40 37 85 101 129 283 316 339 328 314 310 320 344 354 341 320 324 356 356
14 46 76 107 118 130 142 160 223 255 255 237 85 43 354 334 327 268 4 355 291 257 222 246 248 191 121 188 129 52 333 314 12 15 7 54 50 347 349 348 318 24 45 345 289 285 70 41 352 325 128 119 34 326 1 36 55 56 28 69 105 185 195 166 177 167 130 126 125 38 78 144 286 308 331 332 319 313 327 358 12 5 340 322 338 344 289
43 101 145 140 137 151 180 203 239 266 280 8 36 9 332 319 110 192 243 267 268 274 311 280 256 25 2 11 87 60 329 327 25 10 334 7 25 359 347 332 330 29 24 295 291 20 60 42 312 285 147 141 301 40 46 23 14 13 350 357 24 315 279 246 220 169 138 140 136 354 343 302 299 315 318 310 315 326 342 6 9 348 308 304 317 284 261
186 194 184 164 176 224 224 175 103 10 353 12 5 329 289 252 229 212 225 237 232 229 275 296 350 48 12 22 71 43 320 351 20 359 350 0 353 348 332 319 340 23 316 269 295 35 39 33 309 287 253 226 34 60 53 8 345 354 345 333 334 315 286 261 202 159 143 155 215 262 270 269 272 302 321 313 315 332 351 354 340 313 282 278 272 263 273
219 212 221 236 247 250 214 95 58 20 0 8 344 296 247 231 220 189 196 215 193 192 256 288 30 65 322 33 60 18 351 357 347 340 13 11 325 318 335 336 4 351 303 294 73 27 325 284 266 284 290 67 62 53 42 10 354 349 330 316 310 294 284 266 176 172 183 198 213 232 271 286 293 322 333 322 321 341 47 67 336 272 231 241 250 250 251
222 236 246 247 247 20 47 41 38 38 96 247 276 268 229 216 208 169 170 204 177 183 260 302 54 37 345 27 70 51 19 337 310 329 29 23 339 8 7 350 5 329 307 336 68 351 291 266 248 277 38 84 74 33 4 359 353 345 340 331 316 305 307 344 95 170 241 259 282 46 30 342 327 334 333 318 315 339 81 106 221 244 217 217 242 251 237
235 259 256 243 74 55 58 79 104 151 213 227 234 243 240 233 218 157 179 227 206 160 25 1 61 45 1 346 25 61 36 329 324 349 9 3 14 11 327 321 357 335 310 323 55 339 304 301 290 280 100 97 95 347 336 347 350 358 0 336 314 308 310 304 150 158 265 317 8 20 354 339 340 333 314 301 305 318 76 147 205 227 214 201 213 243 246
346 323 317 7 27 33 74 112 151 225 248 236 208 235 252 247 226 153 221 230 199 136 89 321 263 110 57 335 332 31 62 14 349 336 318 347 48 324 297 312 355 314 303 344 30 330 294 293 299 347 82 70 16 327 330 348 359 5 4 347 334 324 302 248 177 135 323 319 334 327 334 352 345 315 301 308 326 338 337 181 194 210 217 215 210 216 236
17 7 358 344 325 278 178 178 201 231 276 321 272 245 234 216 196 207 224 241 115 116 131 318 345 69 71 355 330 345 60 39 353 299 289 13 59 291 292 319 334 297 310 348 344 309 291 291 297 69 97 74 353 328 338 359 4 351 352 12 355 313 292 258 153 131 308 318 328 331 343 347 318 302 320 360 5 336 185 183 196 204 212 222 224 222 245
5 357 335 287 232 210 217 221 206 191 293 267 220 201 222 224 216 207 196 182 161 135 116 91 336 334 71 22 315 287 100 64 342 297 300 355 25 285 301 312 299 296 317 318 300 287 281 288 300 91 114 105 20 14 14 6 353 343 349 8 327 273 286 287 248 225 282 308 322 326 335 336 319 322 7 54 83 210 178 187 207 211 208 219 241 259 264
298 279 276 266 209 201 240 231 167 179 241 224 198 188 195 207 213 213 190 162 156 125 75 59 293 283 144 92 299 291 101 95 301 295 328 348 328 301 297 291 292 307 308 297 292 281 267 280 321 101 133 144 77 54 29 351 346 355 351 339 300 249 263 276 274 264 269 282 298 311 322 336 337 334 343 142 172 181 186 197 206 212 235 267 261 257 264
267 206 190 200 327 264 248 174 179 227 226 213 218 216 202 195 189 167 134 115 105 100 122 291 314 312 305 163 204 321 2 254 240 251 336 328 304 293 294 302 312 308 294 287 288 282 281 347 17 27 145 104 79 66 32 358 352 352 340 325 317 306 271 260 259 257 254 254 261 286 306 328 351 320 287 236 180 181 203 209 202 201 226 248 252 260 279
252 175 171 210 239 255 231 196 206 221 208 206 223 240 34 54 79 86 79 57 116 114 127 315 320 305 296 295 254 214 214 294 303 303 301 278 271 285 320 321 306 290 288 294 292 289 332 57 52 353 23 53 54 38 28 12 339 333 339 330 320 314 290 257 249 249 250 250 243 244 261 281 294 282 272 248 203 196 210 217 214 221 245 261 267 275 290
232 191 237 242 234 231 222 216 225 233 214 217 226 64 59 58 80 87 52 309 351 69 31 334 300 281 288 319 314 269 193 186 278 273 264 267 266 274 317 304 290 286 289 287 282 289 332 50 95 87 52 33 341 316 357 351 313 321 337 313 302 310 310 294 275 256 242 238 237 236 243 257 260 258 253 241 227 217 215 219 227 236 247 258 261 259 268
228 198 232 241 225 215 213 220 236 240 201 64 62 79 79 37 166 117 91 4 19 26 345 318 307 290 269 153 297 293 282 225 242 242 228 259 271 263 263 275 279 282 280 279 285 306 335 353 47 80 65 342 295 303 324 313 304 312 308 290 284 283 280 281 280 273 270 269 258 241 228 226 235 246 243 238 237 232 221 218 227 232 233 241 251 248 245
280 264 249 244 243 237 224 229 249 231 172 101 75 119 175 218 108 95 97 44 17 15 343 327 319 304 286 202 235 267 262 232 236 232 200 222 245 244 251 271 279 286 294 305 320 342 12 32 33 327 251 272 284 292 296 297 303 303 295 295 300 295 275 269 264 255 274 305 295 276 254 223 202 219 245 243 241 240 233 225 225 231 231 233 242 245 237
257 263 250 240 252 262 249 237 250 228 174 160 179 209 215 173 88 82 56 306 329 7 297 266 257 282 302 308 288 269 263 255 247 240 236 242 250 246 242 256 271 292 318 327 324 333 355 11 322 267 261 264 270 276 286 294 294 285 277 280 285 295 309 313 307 281 220 220 272 294 295 275 227 214 233 238 231 233 237 233 229 231 234 234 237 242 237
232 240 246 247 256 273 281 274 279 273 189 180 195 200 3 260 108 89 55 329 300 271 262 258 234 218 252 265 263 267 285 292 269 256 253 255 256 254 252 255 270 300 319 324 329 340 341 330 309 300 292 279 274 280 289 291 290 295 300 295 284 278 305 317 313 304 278 233 222 254 286 281 261 233 217 242 238 231 233 235 232 233 236 236 235 237 236
214 225 251 251 239 235 238 272 302 301 267 217 190 112 44 299 352 82 71 301 269 262 268 276 257 239 242 247 258 273 276 271 264 265 268 267 262 264 273 287 306 316 311 311 322 330 315 300 301 297 279 266 266 274 278 276 280 291 297 294 291 285 271 272 287 301 306 293 250 215 233 261 271 262 216 225 239 234 229 230 229 229 236 242 240 237 237